Weather History for Bennington, VT

Change the Weather History Date:

Saturday, October 6, 2012

  Actual Average Record
Temperature  
Mean Temperature 60 °F 51 °F  
Max Temperature 73 °F 62 °F 82 °F (2007)
Min Temperature 46 °F 40 °F 27 °F (1999)
Degree Days  
Heating Degree Days 5 14  
Month to date heating degree days 31 79  
Since 1 July heating degree days 246 357  
Cooling Degree Days 0 0  
Month to date cooling degree days 2 0  
Year to date cooling degree days 476 311  
Growing Degree Days 9 (Base 50)    
Moisture  
Dew Point 52 °F    
Average Humidity 79    
Maximum Humidity 100    
Minimum Humidity 57    
Precipitation  
Precipitation T in 0.12 in 0.60 in (2013)
Month to date precipitation 0.61 0.76  
Year to date precipitation 25.22 31.87  
Sea Level Pressure  
Sea Level Pressure 29.83 in    
Wind  
Wind Speed 6 mph (WSW)    
Max Wind Speed 20 mph    
Max Gust Speed 28 mph    
Visibility 5 miles    
Events Fog , Rain    
T = Trace of Precipitation, MM = Missing Value Source: NWS Daily Summary

Daily Weather History Graph

Daily Weather History Graph

Search for Another Location

Airport:

Trip Planner

Search our weather history database for the weather conditions in past years. The results will help you decide how hot, cold, wet, or windy it might be!

Date:

Astronomy

Oct. 06, 2012 Rise Set
Actual Time 6:56 AM EDT 6:24 PM EDT
Civil Twilight 6:28 AM EDT 6:53 PM EDT
Nautical Twilight 5:55 AM EDT 7:25 PM EDT
Astronomical Twilight 5:22 AM EDT 7:58 PM EDT
Moon 10:31 PM EDT (10/6) 12:55 PM EDT (10/6)
Length of Visible Light 12h 24m
Length of Day
11h 28m
Waning Gibbous, 65% of the Moon is Illuminated
Oct 6
Waning Gibbous
Oct 8
Last Quarter
Oct 15
New
Oct 21
First Quarter
Oct 29
Full

Hourly Weather History & Observations

Time (EDT) Temp. Dew Point Humidity Pressure Visibility Wind Dir Wind Speed Gust Speed Precip Events Conditions
12:29 AM 60.8 °F 60.8 °F 100% 29.90 in 1.8 mi North 3.5 mph - 0.00 in   Overcast
12:51 AM 60.8 °F 60.8 °F 100% 29.89 in 1.0 mi Calm Calm - 0.00 in   Mostly Cloudy
12:54 AM 61.0 °F 60.1 °F 97% 29.88 in 0.8 mi Calm Calm - 0.00 in   Overcast
1:03 AM 60.8 °F 59.0 °F 94% 29.89 in 0.2 mi Calm Calm - N/A Fog Fog
1:54 AM 57.9 °F 57.0 °F 97% 29.86 in 0.2 mi Calm Calm - N/A Fog Fog
2:20 AM 55.4 °F 55.4 °F 100% 29.86 in 0.5 mi Calm Calm - N/A Fog Fog
2:34 AM 55.4 °F 55.4 °F 100% 29.86 in 1.0 mi Calm Calm - N/A   Mist
2:46 AM 55.4 °F 55.4 °F 100% 29.85 in 0.2 mi Calm Calm - N/A Fog Fog
2:54 AM 55.9 °F 55.0 °F 97% 29.84 in 0.5 mi Calm Calm - N/A Fog Fog
3:01 AM 55.4 °F 55.4 °F 100% 29.85 in 0.2 mi Calm Calm - N/A Fog Fog
3:15 AM 55.4 °F 53.6 °F 94% 29.84 in 0.5 mi Calm Calm - N/A Fog Fog
3:26 AM 55.4 °F 55.4 °F 100% 29.84 in 1.5 mi Calm Calm - N/A   Scattered Clouds
3:39 AM 55.4 °F 53.6 °F 94% 29.83 in 0.8 mi Calm Calm - N/A   Scattered Clouds
3:51 AM 55.4 °F 53.6 °F 94% 29.82 in 0.2 mi Calm Calm - N/A Fog Fog
3:54 AM 55.9 °F 55.0 °F 97% 29.82 in 0.2 mi Calm Calm - N/A Fog Fog
4:05 AM 55.4 °F 55.4 °F 100% 29.82 in 0.2 mi Calm Calm - N/A Fog Fog
4:45 AM 55.4 °F 53.6 °F 94% 29.81 in 0.5 mi Calm Calm - N/A Fog Fog
4:47 AM 55.4 °F 53.6 °F 94% 29.81 in 0.2 mi Calm Calm - N/A Fog Fog
4:54 AM 55.0 °F 54.0 °F 96% 29.80 in 0.2 mi Calm Calm - N/A Fog Fog
5:01 AM 53.6 °F 53.6 °F 100% 29.81 in 0.2 mi Calm Calm - N/A Fog Fog
5:05 AM 53.6 °F 53.6 °F 100% 29.81 in 0.5 mi Calm Calm - N/A Fog Fog
5:27 AM 55.4 °F 53.6 °F 94% 29.80 in 1.2 mi Calm Calm - N/A   Partly Cloudy
5:34 AM 55.4 °F 53.6 °F 94% 29.80 in 3.0 mi West 3.5 mph - N/A   Partly Cloudy
5:54 AM 55.0 °F 54.0 °F 96% 29.79 in 2.5 mi Calm Calm - 0.01 in   Scattered Clouds
6:45 AM 55.4 °F 53.6 °F 94% 29.79 in 2.0 mi Calm Calm - N/A   Partly Cloudy
6:54 AM 55.0 °F 54.0 °F 96% 29.78 in 4.0 mi Calm Calm - N/A   Partly Cloudy
7:54 AM 62.1 °F 55.9 °F 80% 29.77 in 9.0 mi South 5.8 mph - N/A   Clear
8:54 AM 64.9 °F 55.0 °F 70% 29.75 in 10.0 mi South 8.1 mph - N/A   Clear
10:54 AM 72.0 °F 55.0 °F 55% 29.70 in 10.0 mi South 15.0 mph 25.3 mph N/A   Clear
11:54 AM 66.9 °F 57.0 °F 70% 29.73 in 10.0 mi WNW 9.2 mph 21.9 mph 0.00 in Rain Light Rain
12:39 PM 59.0 °F 53.6 °F 82% 29.77 in 10.0 mi West 11.5 mph 20.7 mph 0.00 in   Overcast
12:54 PM 57.9 °F 52.0 °F 81% 29.77 in 8.0 mi WSW 9.2 mph 16.1 mph 0.00 in Rain Light Rain
1:54 PM 55.0 °F 50.0 °F 83% 29.78 in 10.0 mi WSW 10.4 mph - 0.00 in   Overcast
2:40 PM 53.6 °F 48.2 °F 82% 29.82 in 10.0 mi WSW 9.2 mph - 0.00 in   Overcast
2:54 PM 54.0 °F 48.0 °F 80% 29.82 in 10.0 mi WSW 9.2 mph - 0.00 in   Overcast
3:54 PM 53.1 °F 48.0 °F 83% 29.84 in 10.0 mi SW 6.9 mph - 0.00 in Rain Light Rain
4:54 PM 53.1 °F 46.9 °F 80% 29.85 in 10.0 mi WSW 9.2 mph - 0.00 in   Overcast
5:54 PM 53.1 °F 45.0 °F 74% 29.86 in 10.0 mi WSW 8.1 mph 18.4 mph N/A   Scattered Clouds
6:54 PM 51.1 °F 43.0 °F 74% 29.88 in 10.0 mi Variable 4.6 mph - N/A   Clear
7:54 PM 48.9 °F 43.0 °F 80% 29.90 in 10.0 mi Calm Calm - N/A   Clear
8:54 PM 50.0 °F 43.0 °F 77% 29.93 in 10.0 mi SW 6.9 mph - N/A   Clear
9:54 PM 48.9 °F 39.0 °F 69% 29.95 in 10.0 mi WSW 5.8 mph - N/A   Clear
10:54 PM 46.9 °F 37.9 °F 71% 29.97 in 10.0 mi WSW 6.9 mph - N/A   Partly Cloudy
11:54 PM 46.9 °F 36.0 °F 66% 29.98 in 10.0 mi West 6.9 mph - N/A   Clear